STARLINK-4509 (53404 NORAD) Tracking and Keplerian Element Data

This shows tracking and keplerian element data for the satellite.

Feedback or suggestion? Click here.




ElementValue
Catalog53404
NameSTARLINK-4509
Epoch Orbit797
Epoch Day270.25001157
Epoch Year2022
RAAN11.395
Inclination53.2155
Eccentricity0.0001884
Argument of Perigee42.2214
Mean Anonmoly220.4174
Mean Motion15.49876757
Decay Rate0.0004317
L11 53404U 22097S 22270.25001157 .00043170 00000+0 76458-3 0 9997
L22 53404 53.2155 11.3950 0001884 42.2214 220.4174 15.49876757 7976

Live tracking and technical data element details for STARLINK-4509 (NORAD 53404). STARLINK-4509 can be tracked NOW for your location showing map with azimuth and elevation plus other details from your city location.

Track the satellite on the map from your city or location and see movement details for azimuth, elevation, latitude, longitude, range, height, and movement on the map or in text.







IsCatalogInMostPopularTable: catalog: 53404, numindb: 2
Update: records affected: 1



GetName: 53404 STARLINK-4509

Hit Count: updated at: Thu, 29 Sep 2022 10:25:14 GMT